Wiscasset, ME

3:33 AM EST on December 11, 2019 (GMT -0500)
Wiscasset

Weather History for KIWI - October, 2019

Change the Weather History Date:

Tuesday, October 22, 2019

  Actual Average Record
Temperature  
Mean Temperature 46 °F -  
Max Temperature 59 °F 53 °F 77 °F (2007)
Min Temperature 36 °F 33 °F 24 °F (2002)
Degree Days  
Heating Degree Days 18    
Moisture  
Dew Point 42 °F    
Average Humidity 83    
Maximum Humidity 97    
Minimum Humidity 62    
Precipitation  
Precipitation 0.00 in - - ()
Sea Level Pressure  
Sea Level Pressure 30.16 in    
Wind  
Wind Speed 3 mph ()    
Max Wind Speed 13 mph    
Max Gust Speed 20 mph    
Visibility 8.6 miles    
Events      
Averages and records for this station are not official NWS values.
T = Trace of Precipitation, MM = Missing Value Source: Averaged Metar Reports

Daily Weather History Graph

Daily Weather History Graph

Search for Another Location

Airport or City:

Astronomy

Oct. 22, 2019 Rise Set
Actual Time 7:01 AM EDT 5:44 PM EDT
Civil Twilight 6:32 AM EDT 6:13 PM EDT
Nautical Twilight 5:58 AM EDT 6:47 PM EDT
Astronomical Twilight 5:25 AM EDT 7:20 PM EDT
Moon No Moon Rise 3:06 PM EDT (10/22)
Length of Visible Light 11h 40m
Length of Day
10h 42m
Last Quarter, 37% of the Moon is Illuminated
Oct 22
Last Quarter
Oct 27
New
Nov 4
First Quarter
Nov 12
Full
Nov 19
Last Quarter

Hourly Weather History & Observations

Time (EDT) Temp. Dew Point Humidity Pressure Visibility Wind Dir Wind Speed Gust Speed Precip Events Conditions
12:05 AM 39.0 °F 37.0 °F 93% 30.19 in 3.0 mi Calm Calm - N/A   Overcast
12:10 AM 39.0 °F 37.0 °F 93% 30.19 in 1.8 mi Calm Calm - N/A   Overcast
12:18 AM 37.9 °F 37.0 °F 97% 30.20 in 3.0 mi Calm Calm - N/A   Overcast
12:53 AM 37.9 °F 36.0 °F 93% 30.21 in 10.0 mi Calm Calm - N/A   Mostly Cloudy
1:36 AM 37.0 °F 36.0 °F 96% 30.20 in 10.0 mi Calm Calm - N/A   Mostly Cloudy
1:53 AM 37.0 °F 36.0 °F 96% 30.20 in 10.0 mi Calm Calm - N/A   Overcast
2:00 AM 37.9 °F 36.0 °F 93% 30.21 in 1.8 mi Calm Calm - N/A   Overcast
2:10 AM 37.0 °F 35.1 °F 93% 30.21 in 3.0 mi Calm Calm - N/A   Overcast
2:53 AM 36.0 °F 35.1 °F 97% 30.21 in 2.5 mi Calm Calm - N/A   Overcast
3:06 AM 36.0 °F 34.0 °F 93% 30.20 in 7.0 mi Calm Calm - N/A   Overcast
3:34 AM 36.0 °F 34.0 °F 93% 30.20 in 10.0 mi Calm Calm - N/A   Partly Cloudy
3:53 AM 36.0 °F 34.0 °F 93% 30.20 in 10.0 mi Calm Calm - N/A   Clear
5:53 AM 37.0 °F 35.1 °F 93% 30.20 in 10.0 mi Calm Calm - N/A   Clear
6:53 AM 37.0 °F 35.1 °F 93% 30.19 in 10.0 mi Calm Calm - N/A   Clear
7:53 AM 43.0 °F 41.0 °F 93% 30.20 in 10.0 mi Calm Calm - N/A   Clear
8:53 AM 46.9 °F 44.1 °F 90% 30.22 in 10.0 mi Calm Calm - N/A   Clear
9:53 AM 50.0 °F 46.0 °F 86% 30.22 in 10.0 mi Variable 3.5 mph - N/A   Clear
10:53 AM 53.1 °F 44.1 °F 71% 30.20 in 10.0 mi ENE 6.9 mph - N/A   Clear
11:53 AM 57.0 °F 46.0 °F 67% 30.20 in 10.0 mi Variable 5.8 mph - N/A   Clear
12:53 PM 57.9 °F 45.0 °F 62% 30.18 in 10.0 mi ESE 9.2 mph 19.6 mph N/A   Clear
1:53 PM 57.0 °F 44.1 °F 62% 30.17 in 10.0 mi East 5.8 mph - N/A   Clear
2:53 PM 55.9 °F 44.1 °F 64% 30.17 in 10.0 mi ENE 8.1 mph - N/A   Clear
3:53 PM 55.0 °F 45.0 °F 69% 30.17 in 10.0 mi East 9.2 mph - N/A   Clear
4:53 PM 54.0 °F 45.0 °F 72% 30.15 in 10.0 mi East 8.1 mph - N/A   Clear
5:53 PM 53.1 °F 46.0 °F 77% 30.15 in 10.0 mi East 5.8 mph - N/A   Scattered Clouds
6:03 PM 53.1 °F 46.0 °F 77% 30.16 in 10.0 mi East 4.6 mph - N/A   Mostly Cloudy
6:28 PM 53.1 °F 46.0 °F 77% 30.15 in 10.0 mi ENE 8.1 mph - N/A   Scattered Clouds
6:53 PM 53.1 °F 46.0 °F 77% 30.14 in 10.0 mi Variable 6.9 mph - N/A   Partly Cloudy
7:53 PM 53.1 °F 46.9 °F 80% 30.11 in 10.0 mi East 9.2 mph 16.1 mph N/A   Mostly Cloudy
8:53 PM 53.1 °F 46.9 °F 80% 30.09 in 10.0 mi East 12.7 mph 16.1 mph N/A   Scattered Clouds
9:42 PM 54.0 °F 48.0 °F 80% 30.09 in 10.0 mi East 8.1 mph - N/A   Overcast
9:53 PM 54.0 °F 48.0 °F 80% 30.09 in 10.0 mi East 10.4 mph - N/A   Overcast
10:53 PM 54.0 °F 48.0 °F 80% 30.05 in 10.0 mi East 11.5 mph 19.6 mph N/A   Overcast
11:26 PM 54.0 °F 48.0 °F 80% 30.02 in 10.0 mi East 9.2 mph - N/A   Overcast
11:53 PM 54.0 °F 48.0 °F 80% 30.01 in 10.0 mi East 11.5 mph 19.6 mph N/A   Overcast